User: anonymous   Login
Location: Unspecified
(0.0000°N, 0.0000°E)
Time: 17:45:57
(UTC+02:00)
Language:

Cosmos 773 Rocket - Orbit

View from above orbital plane
View from above orbital plane
View from above satellite
View from above satellite

Ground track
Ground track

The orbit data is extracted from the following two-line orbital elements,

1 08344U 75094B   16144.13641627 -.00000020  00000-0  19097-5 0  9994
2 08344  74.0558 124.3314 0020880 125.4950 234.8157 14.39053178129577
Epoch (UTC): 23 May 2016 03:16:26
Eccentricity: 0.0020880
inclination: 74.0558°
perigee height: 747 km
apogee height: 776 km
right ascension of ascending node: 124.3314°
argument of perigee: 125.4950°
revolutions per day: 14.39053178
mean anomaly at epoch: 234.8157°
orbit number at epoch: 12957

The dashed part of the orbit path shows where the satellite is in the earth's shadow,  

DLR